Station Historical Data
Daily Summary for April 18, 2017 Units:  English    Metric   Both
« Previous Day
Next Day »
Daily Weekly Monthly Yearly Custom
  High: Low: Average:
Temperature: 61.0 °F 33.5 °F 47 °F
Dew Point: 40.1 °F 29.5 °F 35.3 °F
Humidity: 87% 43% 66%
Wind Speed: 11.0mph 0.0mph 3mph
Wind Gust: 13.0mph - -
Wind- - ESE
Pressure: 30.43 in 30.23 in -
Precipitation: 0.00 in    
Historical Graphs
 
 
Tabular Data for April 18, 2017
Time Temperature Dew Point Pressure Wind Wind Speed Wind Gust Humidity Rainfall Rate (Hourly)
00:04 39.8 °F 32.2 °F 30.29 in North 2.0 mph 6.0 mph 74% 0.00 in
00:09 39.6 °F 32.0 °F 30.29 in North 3.0 mph 7.0 mph 74% 0.00 in
00:14 39.5 °F 31.9 °F 30.30 in NNE 1.0 mph 5.0 mph 74% 0.00 in
00:19 39.3 °F 31.7 °F 30.30 in NNE 3.0 mph 4.0 mph 74% 0.00 in
00:24 39.3 °F 31.7 °F 30.30 in North 1.0 mph 5.0 mph 74% 0.00 in
00:29 39.0 °F 31.7 °F 30.31 in NNW 3.0 mph 4.0 mph 75% 0.00 in
00:34 38.8 °F 31.9 °F 30.31 in NNW 2.0 mph 5.0 mph 76% 0.00 in
00:39 38.6 °F 32.0 °F 30.31 in NNW 3.0 mph 6.0 mph 77% 0.00 in
00:44 38.4 °F 31.8 °F 30.31 in NNW 2.0 mph 6.0 mph 77% 0.00 in
00:49 38.2 °F 31.9 °F 30.31 in NNW 1.0 mph 5.0 mph 78% 0.00 in
00:54 37.9 °F 31.7 °F 30.31 in NNW 1.0 mph 4.0 mph 78% 0.00 in
00:59 37.6 °F 31.7 °F 30.32 in NNW 2.0 mph 3.0 mph 79% 0.00 in
01:04 37.4 °F 31.5 °F 30.32 in NNW 1.0 mph 3.0 mph 79% 0.00 in
01:09 37.2 °F 31.6 °F 30.32 in NNW 1.0 mph 5.0 mph 80% 0.00 in
01:14 37.3 °F 31.4 °F 30.32 in North 2.0 mph 5.0 mph 79% 0.00 in
01:19 37.3 °F 31.4 °F 30.32 in North 2.0 mph 5.0 mph 79% 0.00 in
01:24 37.3 °F 31.4 °F 30.32 in NNW 2.0 mph 5.0 mph 79% 0.00 in
01:29 37.2 °F 31.3 °F 30.32 in NNE 2.0 mph 4.0 mph 79% 0.00 in
01:34 37.1 °F 31.2 °F 30.32 in NNW 2.0 mph 4.0 mph 79% 0.00 in
01:39 36.9 °F 31.0 °F 30.32 in North 2.0 mph 4.0 mph 79% 0.00 in
01:44 36.7 °F 31.1 °F 30.33 in NNW 2.0 mph 4.0 mph 80% 0.00 in
01:49 36.5 °F 30.9 °F 30.32 in NNW 2.0 mph 3.0 mph 80% 0.00 in
01:54 36.4 °F 30.8 °F 30.33 in North 4.0 mph 5.0 mph 80% 0.00 in
01:59 36.4 °F 31.1 °F 30.33 in North 2.0 mph 4.0 mph 81% 0.00 in
02:04 36.4 °F 31.1 °F 30.33 in North 1.0 mph 4.0 mph 81% 0.00 in
02:09 36.2 °F 30.9 °F 30.33 in Calm   2.0 mph 81% 0.00 in
02:14 35.9 °F 30.6 °F 30.33 in Calm     81% 0.00 in
02:19 35.7 °F 30.7 °F 30.33 in Calm     82% 0.00 in
02:29 35.7 °F 30.7 °F 30.33 in Calm   4.0 mph 82% 0.00 in
02:34 35.7 °F 30.7 °F 30.33 in NNW 2.0 mph 5.0 mph 82% 0.00 in
02:39 35.6 °F 30.6 °F 30.33 in NNW 2.0 mph 4.0 mph 82% 0.00 in
02:44 35.4 °F 30.5 °F 30.33 in NNW 1.0 mph 2.0 mph 82% 0.00 in
02:49 35.4 °F 30.5 °F 30.33 in Calm   2.0 mph 82% 0.00 in
02:54 35.1 °F 30.5 °F 30.33 in Calm   2.0 mph 83% 0.00 in
02:59 34.9 °F 30.3 °F 30.33 in Calm     83% 0.00 in
03:04 34.6 °F 30.0 °F 30.33 in Calm   3.0 mph 83% 0.00 in
03:09 34.8 °F 30.5 °F 30.33 in NNW 1.0 mph 4.0 mph 84% 0.00 in
03:14 34.8 °F 30.5 °F 30.33 in NNW 1.0 mph 4.0 mph 84% 0.00 in
03:19 34.7 °F 30.4 °F 30.33 in NNW 1.0 mph 2.0 mph 84% 0.00 in
03:24 34.6 °F 30.3 °F 30.34 in Calm     84% 0.00 in
03:29 34.4 °F 30.1 °F 30.34 in Calm   1.0 mph 84% 0.00 in
03:34 34.4 °F 30.1 °F 30.34 in Calm     84% 0.00 in
03:39 34.1 °F 30.1 °F 30.34 in Calm   2.0 mph 85% 0.00 in
03:44 34.1 °F 30.1 °F 30.34 in Calm   2.0 mph 85% 0.00 in
03:49 33.9 °F 29.9 °F 30.35 in Calm     85% 0.00 in
03:54 33.8 °F 29.8 °F 30.35 in Calm     85% 0.00 in
03:59 33.9 °F 29.9 °F 30.35 in Calm   2.0 mph 85% 0.00 in
04:04 33.9 °F 29.9 °F 30.35 in Calm   2.0 mph 85% 0.00 in
04:09 33.5 °F 29.5 °F 30.35 in Calm   2.0 mph 85% 0.00 in
04:14 33.6 °F 29.9 °F 30.35 in Calm     86% 0.00 in
04:19 33.9 °F 30.2 °F 30.35 in NNW 2.0 mph 3.0 mph 86% 0.00 in
04:24 33.8 °F 30.1 °F 30.35 in NNW 2.0 mph 3.0 mph 86% 0.00 in
04:29 33.9 °F 30.2 °F 30.35 in Calm   3.0 mph 86% 0.00 in
04:34 33.8 °F 30.1 °F 30.35 in NNW 1.0 mph 3.0 mph 86% 0.00 in
04:39 33.9 °F 30.2 °F 30.35 in Calm   3.0 mph 86% 0.00 in
04:44 34.1 °F 30.4 °F 30.35 in NNW 2.0 mph 3.0 mph 86% 0.00 in
04:49 34.2 °F 30.4 °F 30.35 in NNW 1.0 mph 3.0 mph 86% 0.00 in
04:54 34.1 °F 30.4 °F 30.36 in NNW 1.0 mph 3.0 mph 86% 0.00 in
04:59 34.1 °F 30.4 °F 30.36 in NNW 1.0 mph 3.0 mph 86% 0.00 in
05:04 34.0 °F 30.3 °F 30.36 in NNW 1.0 mph 2.0 mph 86% 0.00 in
05:09 34.0 °F 30.5 °F 30.35 in NNW 1.0 mph 3.0 mph 87% 0.00 in
05:14 34.0 °F 30.5 °F 30.36 in NNW 2.0 mph 3.0 mph 87% 0.00 in
05:19 33.9 °F 30.4 °F 30.36 in North 1.0 mph 3.0 mph 87% 0.00 in
05:24 33.9 °F 30.4 °F 30.36 in North 2.0 mph 3.0 mph 87% 0.00 in
05:29 34.0 °F 30.5 °F 30.36 in North 2.0 mph 3.0 mph 87% 0.00 in
05:34 33.9 °F 30.4 °F 30.36 in NNE 2.0 mph 6.0 mph 87% 0.00 in
05:39 34.0 °F 30.3 °F 30.36 in NE 2.0 mph 6.0 mph 86% 0.00 in
05:44 34.0 °F 30.3 °F 30.36 in NE 2.0 mph 5.0 mph 86% 0.00 in
05:49 33.9 °F 30.2 °F 30.36 in NE 2.0 mph 5.0 mph 86% 0.00 in
05:54 33.9 °F 30.2 °F 30.36 in NE 2.0 mph 4.0 mph 86% 0.00 in
05:59 33.8 °F 30.1 °F 30.37 in ENE 2.0 mph 4.0 mph 86% 0.00 in
06:04 33.9 °F 30.2 °F 30.37 in NE 3.0 mph 4.0 mph 86% 0.00 in
06:09 34.0 °F 30.3 °F 30.37 in NE 2.0 mph 5.0 mph 86% 0.00 in
06:14 33.9 °F 30.2 °F 30.37 in NE 2.0 mph 5.0 mph 86% 0.00 in
06:19 33.9 °F 30.2 °F 30.37 in NE 1.0 mph 4.0 mph 86% 0.00 in
06:24 33.8 °F 30.1 °F 30.38 in NE 2.0 mph 4.0 mph 86% 0.00 in
06:29 33.8 °F 30.1 °F 30.38 in NE 1.0 mph 3.0 mph 86% 0.00 in
06:34 33.7 °F 30.0 °F 30.38 in NE 1.0 mph 3.0 mph 86% 0.00 in
06:39 33.7 °F 30.0 °F 30.38 in Calm   2.0 mph 86% 0.00 in
06:44 33.7 °F 30.0 °F 30.39 in NE 1.0 mph 3.0 mph 86% 0.00 in
06:49 33.8 °F 30.1 °F 30.39 in NE 4.0 mph 4.0 mph 86% 0.00 in
06:54 34.0 °F 30.3 °F 30.39 in NE 1.0 mph 4.0 mph 86% 0.00 in
06:59 34.2 °F 30.4 °F 30.39 in NE 2.0 mph 4.0 mph 86% 0.00 in
07:04 34.3 °F 30.5 °F 30.39 in NE 3.0 mph 3.0 mph 86% 0.00 in
07:09 34.6 °F 30.6 °F 30.39 in Calm   4.0 mph 85% 0.00 in
07:14 34.8 °F 30.8 °F 30.40 in NE 2.0 mph 5.0 mph 85% 0.00 in
07:19 35.2 °F 31.1 °F 30.40 in ENE 4.0 mph 4.0 mph 85% 0.00 in
07:24 35.7 °F 31.3 °F 30.40 in NE 3.0 mph 7.0 mph 84% 0.00 in
07:29 36.0 °F 31.3 °F 30.40 in NE 4.0 mph 8.0 mph 83% 0.00 in
07:34 36.3 °F 31.6 °F 30.40 in NE 4.0 mph 8.0 mph 83% 0.00 in
07:39 36.7 °F 31.7 °F 30.40 in NE 4.0 mph 9.0 mph 82% 0.00 in
07:44 37.0 °F 31.7 °F 30.40 in NE 6.0 mph 9.0 mph 81% 0.00 in
07:49 37.3 °F 31.7 °F 30.40 in NE 6.0 mph 9.0 mph 80% 0.00 in
07:54 37.7 °F 31.8 °F 30.40 in ENE 4.0 mph 9.0 mph 79% 0.00 in
07:59 38.1 °F 31.8 °F 30.41 in ENE 4.0 mph 10.0 mph 78% 0.00 in
08:04 38.4 °F 31.8 °F 30.41 in ENE 4.0 mph 10.0 mph 77% 0.00 in
08:09 38.5 °F 31.9 °F 30.41 in East 5.0 mph 10.0 mph 77% 0.00 in
08:14 39.1 °F 32.2 °F 30.41 in East 3.0 mph 8.0 mph 76% 0.00 in
08:19 39.4 °F 32.5 °F 30.42 in ENE 4.0 mph 10.0 mph 76% 0.00 in
08:24 39.8 °F 32.5 °F 30.41 in ENE 4.0 mph 10.0 mph 75% 0.00 in
08:29 40.2 °F 32.9 °F 30.41 in SE 5.0 mph 7.0 mph 75% 0.00 in
08:34 40.4 °F 33.1 °F 30.41 in ENE 2.0 mph 8.0 mph 75% 0.00 in
08:39 40.7 °F 33.4 °F 30.41 in ENE 7.0 mph 12.0 mph 75% 0.00 in
08:44 41.0 °F 33.3 °F 30.41 in NE 4.0 mph 8.0 mph 74% 0.00 in
08:49 41.1 °F 33.4 °F 30.42 in East 5.0 mph 9.0 mph 74% 0.00 in
08:54 41.3 °F 33.6 °F 30.42 in East 4.0 mph 9.0 mph 74% 0.00 in
08:59 41.8 °F 33.8 °F 30.42 in ENE 4.0 mph 8.0 mph 73% 0.00 in
09:04 42.6 °F 34.5 °F 30.42 in SE 2.0 mph 6.0 mph 73% 0.00 in
09:09 42.6 °F 34.5 °F 30.42 in East 3.0 mph 8.0 mph 73% 0.00 in
09:14 43.1 °F 34.7 °F 30.42 in ENE 3.0 mph 8.0 mph 72% 0.00 in
09:19 42.5 °F 34.1 °F 30.42 in ENE 4.0 mph 9.0 mph 72% 0.00 in
09:24 43.3 °F 35.2 °F 30.42 in ENE 4.0 mph 9.0 mph 73% 0.00 in
09:29 43.3 °F 34.9 °F 30.42 in ENE 7.0 mph 10.0 mph 72% 0.00 in
09:34 43.5 °F 34.7 °F 30.42 in NE 5.0 mph 10.0 mph 71% 0.00 in
09:39 44.0 °F 35.2 °F 30.42 in NE 5.0 mph 9.0 mph 71% 0.00 in
09:44 44.0 °F 34.8 °F 30.43 in SE 4.0 mph 11.0 mph 70% 0.00 in
09:49 43.9 °F 34.7 °F 30.43 in ENE 4.0 mph 11.0 mph 70% 0.00 in
09:54 44.4 °F 35.2 °F 30.43 in ENE 4.0 mph 9.0 mph 70% 0.00 in
09:59 44.9 °F 35.7 °F 30.42 in ENE 4.0 mph 9.0 mph 70% 0.00 in
10:04 45.4 °F 35.1 °F 30.42 in ENE 4.0 mph 8.0 mph 67% 0.00 in
10:09 45.1 °F 34.8 °F 30.42 in ENE 7.0 mph 10.0 mph 67% 0.00 in
10:14 45.5 °F 35.9 °F 30.42 in NNE 2.0 mph 10.0 mph 69% 0.00 in
10:19 45.8 °F 35.8 °F 30.42 in NE 5.0 mph 10.0 mph 68% 0.00 in
10:24 46.0 °F 35.7 °F 30.43 in East 6.0 mph 9.0 mph 67% 0.00 in
10:29 47.0 °F 37.0 °F 30.42 in South 2.0 mph 12.0 mph 68% 0.00 in
10:34 47.0 °F 35.8 °F 30.43 in ENE 8.0 mph 10.0 mph 65% 0.00 in
10:39 46.7 °F 35.6 °F 30.42 in NE 5.0 mph 8.0 mph 65% 0.00 in
10:44 46.7 °F 35.6 °F 30.42 in ENE 5.0 mph 9.0 mph 65% 0.00 in
10:49 47.0 °F 35.4 °F 30.43 in NE 5.0 mph 9.0 mph 64% 0.00 in
10:54 47.0 °F 35.4 °F 30.43 in NE 4.0 mph 8.0 mph 64% 0.00 in
10:59 47.8 °F 36.2 °F 30.43 in NNE 3.0 mph 8.0 mph 64% 0.00 in
11:04 48.3 °F 35.9 °F 30.43 in NE 6.0 mph 9.0 mph 62% 0.00 in
11:09 48.3 °F 36.3 °F 30.43 in East 1.0 mph 7.0 mph 63% 0.00 in
11:14 48.6 °F 35.7 °F 30.43 in ENE 4.0 mph 11.0 mph 61% 0.00 in
11:19 48.7 °F 35.8 °F 30.43 in ENE 4.0 mph 11.0 mph 61% 0.00 in
11:24 49.1 °F 36.6 °F 30.43 in NE 1.0 mph 8.0 mph 62% 0.00 in
11:29 48.9 °F 36.9 °F 30.43 in NNE 3.0 mph 6.0 mph 63% 0.00 in
11:34 49.6 °F 36.3 °F 30.43 in East 2.0 mph 9.0 mph 60% 0.00 in
11:39 50.2 °F 36.8 °F 30.42 in NE 4.0 mph 9.0 mph 60% 0.00 in
11:44 50.8 °F 37.0 °F 30.42 in NE 3.0 mph 9.0 mph 59% 0.00 in
11:49 50.5 °F 36.7 °F 30.42 in East 5.0 mph 7.0 mph 59% 0.00 in
11:54 51.0 °F 37.2 °F 30.41 in NE 7.0 mph 8.0 mph 59% 0.00 in
11:59 51.0 °F 38.0 °F 30.41 in NNE 3.0 mph 7.0 mph 61% 0.00 in
12:04 51.2 °F 38.2 °F 30.41 in NE 2.0 mph 9.0 mph 61% 0.00 in
12:09 51.5 °F 37.6 °F 30.41 in ENE 4.0 mph 9.0 mph 59% 0.00 in
12:14 51.1 °F 37.7 °F 30.41 in ENE 4.0 mph 9.0 mph 60% 0.00 in
12:19 52.0 °F 37.7 °F 30.41 in SSE 5.0 mph 9.0 mph 58% 0.00 in
12:24 52.5 °F 35.8 °F 30.40 in NE 4.0 mph 9.0 mph 53% 0.00 in
12:29 52.3 °F 36.6 °F 30.40 in NE 4.0 mph 10.0 mph 55% 0.00 in
12:34 51.9 °F 36.7 °F 30.40 in ENE 2.0 mph 12.0 mph 56% 0.00 in
12:39 52.2 °F 38.3 °F 30.40 in NNE 6.0 mph 11.0 mph 59% 0.00 in
12:44 52.5 °F 38.1 °F 30.40 in NNE 3.0 mph 9.0 mph 58% 0.00 in
12:49 53.0 °F 37.7 °F 30.40 in ESE 4.0 mph 12.0 mph 56% 0.00 in
12:54 53.1 °F 38.7 °F 30.39 in NE 1.0 mph 6.0 mph 58% 0.00 in
12:59 54.1 °F 37.3 °F 30.39 in ENE 3.0 mph 8.0 mph 53% 0.00 in
13:04 53.5 °F 36.8 °F 30.39 in NE 3.0 mph 9.0 mph 53% 0.00 in
13:09 53.5 °F 38.2 °F 30.39 in NE 4.0 mph 10.0 mph 56% 0.00 in
13:14 54.5 °F 37.7 °F 30.39 in ENE 5.0 mph 10.0 mph 53% 0.00 in
13:19 54.2 °F 35.9 °F 30.39 in NNE 4.0 mph 9.0 mph 50% 0.00 in
13:24 54.1 °F 38.7 °F 30.39 in NNW 2.0 mph 6.0 mph 56% 0.00 in
13:29 55.1 °F 37.3 °F 30.38 in SSE 3.0 mph 12.0 mph 51% 0.00 in
13:34 55.0 °F 38.6 °F 30.38 in ENE 4.0 mph 12.0 mph 54% 0.00 in
13:39 54.5 °F 37.2 °F 30.38 in NE 4.0 mph 8.0 mph 52% 0.00 in
13:44 56.4 °F 40.0 °F 30.38 in ENE 9.0 mph 9.0 mph 54% 0.00 in
13:49 55.6 °F 37.2 °F 30.38 in NE 1.0 mph 13.0 mph 50% 0.00 in
13:54 55.8 °F 38.9 °F 30.37 in NE 11.0 mph 13.0 mph 53% 0.00 in
13:59 55.3 °F 38.4 °F 30.37 in NE 5.0 mph 13.0 mph 53% 0.00 in
14:04 56.5 °F 39.1 °F 30.37 in NE 6.0 mph 11.0 mph 52% 0.00 in
14:09 56.6 °F 39.2 °F 30.37 in NE 10.0 mph 10.0 mph 52% 0.00 in
14:14 56.5 °F 38.6 °F 30.37 in ENE 3.0 mph 10.0 mph 51% 0.00 in
14:19 57.6 °F 40.1 °F 30.37 in ESE 3.0 mph 7.0 mph 52% 0.00 in
14:24 57.1 °F 37.6 °F 30.37 in ENE 4.0 mph 10.0 mph 48% 0.00 in
14:29 56.5 °F 37.6 °F 30.36 in ENE 4.0 mph 10.0 mph 49% 0.00 in
14:34 57.5 °F 39.5 °F 30.37 in ENE 4.0 mph 9.0 mph 51% 0.00 in
14:39 57.6 °F 39.1 °F 30.37 in NE 4.0 mph 11.0 mph 50% 0.00 in
14:44 57.5 °F 39.5 °F 30.37 in ENE 2.0 mph 8.0 mph 51% 0.00 in
14:49 58.5 °F 39.9 °F 30.37 in NNE 5.0 mph 6.0 mph 50% 0.00 in
14:54 58.4 °F 37.1 °F 30.36 in NE 3.0 mph 9.0 mph 45% 0.00 in
14:59 58.1 °F 39.0 °F 30.36 in ENE 4.0 mph 10.0 mph 49% 0.00 in
15:04 57.8 °F 38.8 °F 30.36 in NNE 4.0 mph 7.0 mph 49% 0.00 in
15:09 58.3 °F 38.7 °F 30.36 in ENE 2.0 mph 5.0 mph 48% 0.00 in
15:14 58.6 °F 38.4 °F 30.36 in NE 2.0 mph 6.0 mph 47% 0.00 in
15:19 58.2 °F 37.5 °F 30.36 in North 4.0 mph 8.0 mph 46% 0.00 in
15:24 58.7 °F 38.5 °F 30.35 in NNE 3.0 mph 8.0 mph 47% 0.00 in
15:29 59.0 °F 37.1 °F 30.35 in NNE 3.0 mph 6.0 mph 44% 0.00 in
15:34 59.3 °F 37.9 °F 30.35 in ENE 3.0 mph 8.0 mph 45% 0.00 in
15:39 58.9 °F 37.6 °F 30.35 in North 4.0 mph 9.0 mph 45% 0.00 in
15:44 58.7 °F 39.0 °F 30.35 in North 2.0 mph 6.0 mph 48% 0.00 in
15:49 58.9 °F 38.7 °F 30.34 in ESE 1.0 mph 6.0 mph 47% 0.00 in
15:54 59.0 °F 37.1 °F 30.34 in North 5.0 mph 7.0 mph 44% 0.00 in
15:59 59.5 °F 37.6 °F 30.34 in ENE 5.0 mph 7.0 mph 44% 0.00 in
16:04 59.6 °F 38.8 °F 30.34 in North 4.0 mph 8.0 mph 46% 0.00 in
16:09 59.5 °F 37.6 °F 30.34 in NE 3.0 mph 7.0 mph 44% 0.00 in
16:14 60.2 °F 37.6 °F 30.33 in NNE 4.0 mph 5.0 mph 43% 0.00 in
16:19 60.3 °F 39.4 °F 30.33 in NE 2.0 mph 8.0 mph 46% 0.00 in
16:24 59.7 °F 37.7 °F 30.33 in NE 4.0 mph 8.0 mph 44% 0.00 in
16:29 59.7 °F 38.3 °F 30.33 in North 4.0 mph 8.0 mph 45% 0.00 in
16:34 59.8 °F 39.0 °F 30.32 in WNW 1.0 mph 10.0 mph 46% 0.00 in
16:39 61.0 °F 39.5 °F 30.32 in NE 4.0 mph 5.0 mph 45% 0.00 in
16:44 60.5 °F 39.0 °F 30.32 in NE 7.0 mph 11.0 mph 45% 0.00 in
16:49 60.0 °F 38.6 °F 30.32 in NE 4.0 mph 11.0 mph 45% 0.00 in
16:54 60.2 °F 38.8 °F 30.32 in NE 4.0 mph 10.0 mph 45% 0.00 in
16:59 59.9 °F 39.1 °F 30.32 in NE 4.0 mph 10.0 mph 46% 0.00 in
17:04 60.4 °F 39.5 °F 30.31 in NNW 6.0 mph 7.0 mph 46% 0.00 in
17:09 60.4 °F 37.8 °F 30.31 in NE 3.0 mph 9.0 mph 43% 0.00 in
17:14 60.5 °F 38.5 °F 30.31 in ESE 2.0 mph 6.0 mph 44% 0.00 in
17:19 60.5 °F 38.5 °F 30.31 in ENE 3.0 mph 10.0 mph 44% 0.00 in
17:24 60.2 °F 39.3 °F 30.31 in NE 4.0 mph 10.0 mph 46% 0.00 in
17:29 60.1 °F 38.7 °F 30.31 in NE 4.0 mph 8.0 mph 45% 0.00 in
17:34 60.5 °F 38.5 °F 30.31 in NE 5.0 mph 6.0 mph 44% 0.00 in
17:39 60.4 °F 38.9 °F 30.31 in NE 6.0 mph 8.0 mph 45% 0.00 in
17:44 60.1 °F 38.1 °F 30.31 in NE 4.0 mph 9.0 mph 44% 0.00 in
17:49 59.9 °F 38.5 °F 30.31 in NE 4.0 mph 9.0 mph 45% 0.00 in
17:54 59.6 °F 38.8 °F 30.31 in NNE 3.0 mph 8.0 mph 46% 0.00 in
17:59 59.8 °F 38.4 °F 30.31 in NNE 3.0 mph 6.0 mph 45% 0.00 in
18:04 59.8 °F 38.4 °F 30.31 in NNE 3.0 mph 6.0 mph 45% 0.00 in
18:09 59.5 °F 38.1 °F 30.31 in NNE 4.0 mph 8.0 mph 45% 0.00 in
18:14 59.6 °F 38.2 °F 30.31 in NE 3.0 mph 7.0 mph 45% 0.00 in
18:19 59.4 °F 38.0 °F 30.30 in ENE 3.0 mph 9.0 mph 45% 0.00 in
18:24 59.1 °F 37.2 °F 30.30 in NE 2.0 mph 8.0 mph 44% 0.00 in
18:29 59.0 °F 37.7 °F 30.30 in NE 4.0 mph 9.0 mph 45% 0.00 in
18:34 58.9 °F 38.1 °F 30.30 in NE 4.0 mph 7.0 mph 46% 0.00 in
18:39 58.4 °F 37.7 °F 30.29 in ENE 7.0 mph 9.0 mph 46% 0.00 in
18:44 58.3 °F 38.1 °F 30.29 in NE 5.0 mph 9.0 mph 47% 0.00 in
18:49 58.1 °F 38.0 °F 30.29 in NE 4.0 mph 9.0 mph 47% 0.00 in
18:54 58.0 °F 38.4 °F 30.29 in NE 4.0 mph 10.0 mph 48% 0.00 in
18:59 57.8 °F 39.3 °F 30.29 in NE 4.0 mph 10.0 mph 50% 0.00 in
19:04 57.4 °F 39.4 °F 30.29 in NNE 3.0 mph 5.0 mph 51% 0.00 in
19:09 57.1 °F 39.1 °F 30.28 in NE 4.0 mph 7.0 mph 51% 0.00 in
19:14 57.0 °F 40.0 °F 30.28 in NE 6.0 mph 8.0 mph 53% 0.00 in
19:19 56.7 °F 39.7 °F 30.28 in NE 4.0 mph 12.0 mph 53% 0.00 in
19:24 56.1 °F 39.7 °F 30.28 in NE 5.0 mph 12.0 mph 54% 0.00 in
19:29 55.9 °F 39.5 °F 30.28 in NE 5.0 mph 11.0 mph 54% 0.00 in
19:34 55.7 °F 39.8 °F 30.27 in NE 5.0 mph 11.0 mph 55% 0.00 in
19:39 55.5 °F 39.6 °F 30.27 in NE 8.0 mph 11.0 mph 55% 0.00 in
19:44 55.3 °F 39.4 °F 30.27 in NE 5.0 mph 11.0 mph 55% 0.00 in
19:49 55.3 °F 39.4 °F 30.27 in ENE 4.0 mph 9.0 mph 55% 0.00 in
19:54 55.3 °F 39.4 °F 30.27 in NNE 2.0 mph 8.0 mph 55% 0.00 in
19:59 55.1 °F 39.7 °F 30.27 in NE 2.0 mph 8.0 mph 56% 0.00 in
20:04 54.8 °F 39.4 °F 30.27 in NE 3.0 mph 7.0 mph 56% 0.00 in
20:09 54.7 °F 39.8 °F 30.28 in NE 4.0 mph 10.0 mph 57% 0.00 in
20:14 54.4 °F 39.5 °F 30.28 in NE 4.0 mph 10.0 mph 57% 0.00 in
20:19 54.3 °F 38.9 °F 30.27 in NE 4.0 mph 10.0 mph 56% 0.00 in
20:24 54.0 °F 38.6 °F 30.27 in NE 4.0 mph 10.0 mph 56% 0.00 in
20:29 53.9 °F 38.6 °F 30.27 in East 3.0 mph 8.0 mph 56% 0.00 in
20:34 53.7 °F 38.8 °F 30.27 in NE 7.0 mph 8.0 mph 57% 0.00 in
20:39 53.5 °F 38.2 °F 30.27 in ENE 4.0 mph 9.0 mph 56% 0.00 in
20:44 53.3 °F 38.0 °F 30.27 in NE 4.0 mph 10.0 mph 56% 0.00 in
20:49 53.2 °F 37.9 °F 30.27 in ENE 4.0 mph 8.0 mph 56% 0.00 in
20:54 53.0 °F 38.2 °F 30.27 in ENE 2.0 mph 8.0 mph 57% 0.00 in
20:59 52.9 °F 38.1 °F 30.27 in East 5.0 mph 7.0 mph 57% 0.00 in
21:04 52.6 °F 38.2 °F 30.28 in ENE 3.0 mph 8.0 mph 58% 0.00 in
21:09 52.3 °F 38.0 °F 30.28 in ENE 2.0 mph 8.0 mph 58% 0.00 in
21:14 52.3 °F 38.0 °F 30.28 in East 3.0 mph 8.0 mph 58% 0.00 in
21:19 52.1 °F 37.8 °F 30.28 in ENE 4.0 mph 8.0 mph 58% 0.00 in
21:24 52.1 °F 38.2 °F 30.29 in NE 2.0 mph 8.0 mph 59% 0.00 in
21:29 51.9 °F 38.0 °F 30.29 in ENE 2.0 mph 7.0 mph 59% 0.00 in
21:34 51.6 °F 38.2 °F 30.29 in ENE 3.0 mph 7.0 mph 60% 0.00 in
21:39 51.6 °F 38.2 °F 30.29 in ENE 3.0 mph 8.0 mph 60% 0.00 in
21:44 51.5 °F 38.1 °F 30.28 in ENE 4.0 mph 8.0 mph 60% 0.00 in
21:49 51.3 °F 37.9 °F 30.28 in East 3.0 mph 8.0 mph 60% 0.00 in
21:54 51.2 °F 37.8 °F 30.28 in East 1.0 mph 9.0 mph 60% 0.00 in
21:59 50.9 °F 37.9 °F 30.27 in East 2.0 mph 5.0 mph 61% 0.00 in
22:04 50.8 °F 37.8 °F 30.27 in East 3.0 mph 8.0 mph 61% 0.00 in
22:09 50.5 °F 38.0 °F 30.27 in ENE 4.0 mph 6.0 mph 62% 0.00 in
22:14 50.4 °F 38.3 °F 30.27 in East 3.0 mph 7.0 mph 63% 0.00 in
22:19 50.3 °F 37.8 °F 30.27 in ENE 3.0 mph 6.0 mph 62% 0.00 in
22:24 50.3 °F 38.2 °F 30.26 in East 2.0 mph 5.0 mph 63% 0.00 in
22:29 50.2 °F 38.1 °F 30.26 in East 2.0 mph 5.0 mph 63% 0.00 in
22:34 50.1 °F 38.0 °F 30.25 in East 2.0 mph 6.0 mph 63% 0.00 in
22:39 50.1 °F 38.0 °F 30.25 in East 2.0 mph 6.0 mph 63% 0.00 in
22:44 50.1 °F 38.0 °F 30.25 in East 2.0 mph 5.0 mph 63% 0.00 in
22:49 50.0 °F 38.3 °F 30.25 in East 2.0 mph 5.0 mph 64% 0.00 in
22:54 49.9 °F 38.2 °F 30.25 in East 2.0 mph 5.0 mph 64% 0.00 in
22:59 49.9 °F 38.2 °F 30.25 in East 2.0 mph 7.0 mph 64% 0.00 in
23:04 49.8 °F 38.1 °F 30.24 in East 1.0 mph 8.0 mph 64% 0.00 in
23:09 49.6 °F 37.9 °F 30.24 in SE 2.0 mph 5.0 mph 64% 0.00 in
23:14 49.5 °F 38.2 °F 30.24 in ESE 1.0 mph 3.0 mph 65% 0.00 in
23:19 49.4 °F 38.1 °F 30.24 in ENE 2.0 mph 5.0 mph 65% 0.00 in
23:24 49.4 °F 38.1 °F 30.24 in East 1.0 mph 5.0 mph 65% 0.00 in
23:29 49.2 °F 37.9 °F 30.24 in ESE 2.0 mph 3.0 mph 65% 0.00 in
23:34 49.2 °F 37.9 °F 30.24 in ESE 1.0 mph 3.0 mph 65% 0.00 in
23:39 49.2 °F 37.9 °F 30.23 in Calm   3.0 mph 65% 0.00 in
23:44 49.3 °F 38.4 °F 30.23 in Calm   1.0 mph 66% 0.00 in
23:49 49.3 °F 38.0 °F 30.23 in Calm   2.0 mph 65% 0.00 in
23:54 49.1 °F 38.2 °F 30.23 in Calm   2.0 mph 66% 0.00 in
23:59 49.0 °F 38.1 °F 30.23 in Calm   2.0 mph 66% 0.00 in
Buffalo, New York, USA
Compliments of Weather Underground - 2.5 mb